[[{"header":{"parameterUnit":"m.s-1","parameterCategory":2,"la1":30.2991,"la2":30.254,"lo1":-89.0895,"lo2":-89.0444,"dy":0.0017,"dx":0.0017,"nx":28,"ny":28,"refTime":"2025-07-22T09:00:00:Z","depth":"0","parameterNumber":2,"parameterNumberName":"U-component_of_CURRENTS"},"data":[0,0,0,0,0,0,0,0,0,0,0,0,0,0,0,0,0,0,0,0,0,0,0,0,0,0,0,0,0,0,0,0,0,0,0,0,0,0,0,0,0,0,0,0,0,0,0,0,0,0,0,0,0,0,0,0,0,0,0.4203,0.4204,0,0.4281,0.4282,0.4283,0.4284,0.4283,0.4282,0.4281,0.4329,0.4331,0.4334,0,0,0,0,0,0,0,0,0,0,0,0,0,0.4133,0.4134,0.4203,0.4204,0.4205,0.4281,0.4282,0.4283,0.4284,0.4283,0.4282,0.428,0.4328,0.4331,0.4334,0,0,0,0,0,0,0,0,0,0,0,0,0,0.4183,0.4135,0.4203,0.4214,0.4216,0.428,0.4282,0.4283,0.4284,0.4283,0.4281,0.428,0.4327,0.4331,0.4334,0.4387,0,0,0.4345,0.4346,0,0,0,0,0,0,0,0,0.418,0.4186,0.4212,0.4213,0.4215,0.427,0.4275,0.4316,0.4285,0.4259,0.4281,0.4279,0.4307,0.4312,0.4332,0.4389,0.4392,0.4345,0.4347,0.4348,0.4349,0,0,0,0,0,0,0,0.4177,0.4183,0.4235,0.4213,0.4215,0.4241,0.4246,0.4283,0.4292,0.4261,0.4261,0.4269,0.4308,0.4329,0.4333,0.4392,0.4345,0.4348,0.435,0.4351,0.4536,0.4539,0,0,0,0,0,0,0.4163,0.418,0.4232,0.4237,0.4193,0.4244,0.4249,0.4255,0.4292,0.4296,0.427,0.4269,0.4324,0.4329,0.4335,0.4451,0.4348,0.4352,0.4354,0.4533,0.4537,0.454,0,0,0,0,0,0,0.4162,0.4167,0.4229,0.4209,0.4219,0.4246,0.4253,0.4257,0.4282,0.4299,0.4302,0.429,0.4323,0.433,0.4382,0.445,0.4353,0.4356,0.453,0.4534,0.4538,0.465,0,0,0,0,0,0,0.4159,0.4166,0.4172,0.4208,0.4219,0.4286,0.4255,0.426,0.4288,0.4287,0.4317,0.432,0.4322,0.4377,0.4385,0.4453,0.4359,0.4526,0.4532,0.4537,0.4643,0.4658,0.4671,0,0,0,0,0,0.4156,0.4173,0.4171,0.4178,0.4224,0.4288,0.4298,0.4311,0.4291,0.4323,0.4335,0.4319,0.4417,0.4382,0.4391,0.4462,0.4524,0.453,0.4536,0.4637,0.4655,0.467,0,0,0,0,0,0,0.415,0.4176,0.4174,0.4198,0.4246,0.4288,0.4314,0.4321,0.4358,0.4351,0.4353,0.4359,0.4442,0.4431,0.4392,0.4531,0.447,0.4478,0.4543,0.456,0.4574,0.4588,0.4362,0,0,0,0,0,0.415,0.4163,0.4205,0.4226,0.4249,0.4283,0.4308,0.4325,0.4358,0.4372,0.4389,0.4417,0.4479,0.4497,0.4543,0.4608,0.4614,0.466,0.4674,0.4686,0.4705,0.4778,0.48,0.4561,0.4561,0.4561,0,0,0.415,0.4168,0.4174,0.4225,0.4257,0.4314,0.4295,0.4347,0.4401,0.4373,0.4442,0.4474,0.451,0.4597,0.4631,0.4591,0.4757,0.4694,0.4704,0.4716,0.4787,0.481,0.4831,0.4565,0.4564,0.4564,0,0,0.4169,0.418,0.4202,0.4249,0.4305,0.434,0.4357,0.4411,0.4443,0.4518,0.4525,0.4593,0.4654,0.4709,0.4743,0.4859,0.4839,0.4868,0.494,0.5011,0.5032,0.505,0.5081,0.5101,0.4861,0.4861,0.4861,0,0.4173,0.4208,0.4225,0.4273,0.4319,0.4354,0.4415,0.4467,0.4531,0.4575,0.4551,0.469,0.4721,0.4847,0.4895,0.4895,0.4909,0.4873,0.503,0.5048,0.5064,0.5092,0.5112,0.4867,0.4867,0.4866,0.4865,0,0.4212,0.4255,0.4282,0.4349,0.4402,0.4468,0.4538,0.4598,0.4633,0.4682,0.4805,0.4852,0.493,0.4964,0.4971,0.5114,0.5077,0.5049,0.4986,0.5095,0.5117,0.5136,0.4876,0.4874,0.4872,0.4871,0,0,0.4193,0.4292,0.4302,0.4351,0.4454,0.4501,0.4608,0.4722,0.4798,0.4863,0.4971,0.5088,0.51,0.514,0.5159,0.5224,0.5361,0.5189,0.519,0.5217,0.5495,0.5264,0.5262,0.5356,0.536,0.5364,0.546,0,0.4231,0.4328,0.4369,0.4478,0.4545,0.4618,0.4716,0.4816,0.4905,0.5016,0.5092,0.5205,0.5171,0.5226,0.5289,0.5366,0.5418,0.5336,0.5388,0.539,0.5169,0.528,0.5017,0.5062,0.5479,0.5482,0.5484,0,0.4253,0.4327,0.443,0.4559,0.4593,0.4655,0.4814,0.4913,0.5078,0.5147,0.5254,0.5314,0.5456,0.5398,0.5546,0.5492,0.5508,0.5535,0.5538,0.5298,0.5195,0.5023,0.5081,0.4974,0.5513,0.5511,0.5509,0,0.423,0.4364,0.4445,0.4491,0.4642,0.4698,0.4786,0.4946,0.5051,0.524,0.5332,0.5468,0.5543,0.5619,0.5661,0.563,0.5791,0.5748,0.5545,0.5528,0.5301,0.5254,0.5255,0.5843,0.5842,0.5842,0.5842,0,0.4257,0.432,0.4434,0.4483,0.4595,0.4691,0.4822,0.4941,0.5117,0.5233,0.5387,0.5479,0.5604,0.5694,0.5725,0.5681,0.5834,0.5582,0.555,0.5326,0.5283,0.5172,0.5136,0.5846,0.5845,0.5844,0.5844,0,0.4218,0.4295,0.4395,0.454,0.4584,0.4661,0.4829,0.492,0.5103,0.5265,0.5336,0.5522,0.5602,0.5689,0.5801,0.5717,0.5568,0.5678,0.5379,0.5306,0.4941,0.4919,0.4735,0.4608,0.5473,0.5468,0.5464,0,0.4208,0.4255,0.4404,0.4454,0.4515,0.4633,0.4706,0.4893,0.4988,0.5254,0.5315,0.5463,0.5483,0.5552,0.5469,0.5452,0.5372,0.518,0.5058,0.4897,0.4856,0.4734,0.4635,0.4823,0.4814,0.4807,0.4801,0,0.4209,0.4248,0.4338,0.4429,0.4496,0.4577,0.4693,0.4754,0.4956,0.5062,0.5172,0.5222,0.5251,0.507,0.5026,0.4992,0.4909,0.5015,0.4965,0.4433,0.4194,0.406,0.4777,0.4734,0.4741,0.4746,0.4749,0.4752,0.4198,0.4244,0.4335,0.44,0.4458,0.4469,0.4444,0.4541,0.4609,0.4661,0.4864,0.4791,0.4759,0.4615,0.4568,0.4303,0.4374,0.4156,0.4176,0.4095,0.3851,0.4377,0.4208,0.4211,0.4214,0.4217,0.4219,0,0.4178,0.4225,0.4293,0.4325,0.4272,0.435,0.4378,0.4278,0.4196,0.4286,0.4288,0.4165,0.3977,0.3957,0.3743,0.3547,0.3445,0.3455,0.3294,0.3267,0.3842,0.369,0.3257,0.3258,0.3258,0.3258,0.3258,0.3258,0.4181,0.4206,0.4218,0.4114,0.4087,0.3923,0.386,0.3746,0.3727,0.353,0.341,0.3433,0.3538,0.3423,0.3181,0.309,0.2928,0.2702,0.2807,0.3284,0.3353,0.342,0.3271,0.2758,0.2758,0.2082,0.2077,0.2073]},{"header":{"parameterUnit":"m.s-1","parameterCategory":2,"la1":30.2991,"la2":30.254,"lo1":-89.0895,"lo2":-89.0444,"dy":0.0017,"dx":0.0017,"nx":28,"ny":28,"refTime":"2025-07-22T09:00:00:Z","depth":"0","parameterNumber":3,"parameterNumberName":"V-component_of_CURRENTS"},"data":[0,0,0,0,0,0,0,0,0,0,0,0,0,0,0,0,0,0,0,0,0,0,0,0,0,0,0,0,0,0,0,0,0,0,0,0,0,0,0,0,0,0,0,0,0,0,0,0,0,0,0,0,0,0,0,0,0,0,0.0241,0.0241,0,0.0209,0.0209,0.0208,0.0167,0.0166,0.0166,0.0165,0.0107,0.0106,0.0105,0,0,0,0,0,0,0,0,0,0,0,0,0,0.0242,0.0243,0.0241,0.0241,0.024,0.0209,0.0209,0.0208,0.0167,0.0166,0.0166,0.0165,0.0107,0.0106,0.0105,0,0,0,0,0,0,0,0,0,0,0,0,0,0.0229,0.0243,0.0241,0.0217,0.0214,0.0209,0.0209,0.0208,0.0167,0.0166,0.0166,0.0165,0.0108,0.0106,0.0105,0.0113,0,0,0.01,0.0099,0,0,0,0,0,0,0,0,0.0229,0.0228,0.0221,0.0219,0.0216,0.0192,0.0188,0.0175,0.0168,0.0184,0.0165,0.0164,0.0134,0.013,0.0125,0.011,0.0108,0.01,0.0099,0.0098,0.0098,0,0,0,0,0,0,0,0.023,0.0229,0.0227,0.022,0.0217,0.0199,0.0197,0.0185,0.0163,0.0183,0.018,0.0178,0.0132,0.0127,0.0124,0.0107,0.01,0.0098,0.0098,0.0097,0.0119,0.012,0,0,0,0,0,0,0.0239,0.0231,0.0228,0.0227,0.0222,0.02,0.0197,0.02,0.0164,0.0158,0.0179,0.0176,0.013,0.0125,0.0121,0.0157,0.0098,0.0097,0.0096,0.0117,0.0119,0.0121,0,0,0,0,0,0,0.0239,0.0239,0.023,0.0228,0.0226,0.0201,0.0205,0.02,0.0193,0.0161,0.0155,0.0177,0.0129,0.0123,0.0121,0.0153,0.0096,0.0095,0.0115,0.0118,0.012,0.0209,0,0,0,0,0,0,0.0239,0.0239,0.0245,0.0229,0.0226,0.0238,0.0205,0.02,0.0194,0.019,0.0158,0.0151,0.0128,0.0124,0.012,0.015,0.0094,0.0114,0.0116,0.0119,0.0204,0.0214,0.0223,0,0,0,0,0,0.0239,0.0258,0.0246,0.0246,0.0235,0.0239,0.0237,0.0215,0.0195,0.0203,0.0181,0.0152,0.0139,0.0124,0.0119,0.0149,0.0112,0.0116,0.0119,0.02,0.0212,0.0222,0,0,0,0,0,0,0.0261,0.0255,0.0242,0.0257,0.0251,0.0233,0.024,0.022,0.0209,0.0204,0.0167,0.0161,0.0172,0.0149,0.0133,0.0164,0.0123,0.0125,0.0186,0.0197,0.0206,0.0261,0.0092,0,0,0,0,0,0.0269,0.028,0.0269,0.028,0.0282,0.026,0.0257,0.0243,0.023,0.0224,0.02,0.0183,0.0183,0.018,0.017,0.0185,0.0175,0.0202,0.0211,0.0219,0.0261,0.0281,0.0296,0.0132,0.0132,0.0131,0,0,0.0278,0.0277,0.0282,0.0285,0.0278,0.0299,0.0257,0.0262,0.0281,0.022,0.0237,0.0212,0.0194,0.0213,0.0216,0.0196,0.0253,0.0224,0.023,0.0269,0.0286,0.0303,0.0317,0.0134,0.0133,0.0133,0,0,0.0313,0.0305,0.0331,0.0335,0.0334,0.0326,0.0331,0.0317,0.0315,0.0325,0.0293,0.03,0.0278,0.0289,0.0288,0.0345,0.0299,0.0325,0.0417,0.0435,0.045,0.0462,0.0434,0.0444,0.0331,0.0331,0.0331,0,0.0325,0.0358,0.0338,0.0368,0.0384,0.0345,0.0384,0.038,0.0366,0.039,0.0344,0.0365,0.033,0.0393,0.0403,0.0371,0.0352,0.0374,0.0449,0.0462,0.0473,0.0442,0.0451,0.0336,0.0335,0.0335,0.0334,0,0.0385,0.041,0.0428,0.0455,0.0469,0.0495,0.0492,0.0507,0.0492,0.0493,0.0539,0.0504,0.053,0.0505,0.0466,0.0538,0.0485,0.0455,0.0424,0.0495,0.0456,0.0465,0.0342,0.0341,0.0339,0.0338,0,0,0.0418,0.0464,0.047,0.051,0.0522,0.0549,0.0589,0.0637,0.0697,0.0669,0.0759,0.0733,0.0719,0.072,0.0676,0.068,0.0707,0.0603,0.0601,0.0581,0.0713,0.0642,0.0643,0.0682,0.0685,0.0687,0.064,0,0.0475,0.0556,0.0561,0.0644,0.0692,0.0689,0.0745,0.0779,0.0796,0.0868,0.0854,0.0908,0.0799,0.0825,0.0813,0.0755,0.074,0.0722,0.0645,0.0643,0.0576,0.0655,0.063,0.0584,0.0647,0.0649,0.065,0,0.0538,0.0589,0.0679,0.0772,0.0796,0.0838,0.0945,0.0995,0.107,0.1091,0.1136,0.112,0.115,0.104,0.0983,0.0971,0.0858,0.0786,0.0781,0.0705,0.059,0.0531,0.0596,0.0458,0.0662,0.0661,0.066,0,0.0592,0.0679,0.0761,0.0787,0.0875,0.0931,0.0988,0.1067,0.1161,0.1253,0.1336,0.1333,0.1366,0.1258,0.1094,0.1045,0.1013,0.0925,0.075,0.0741,0.0705,0.0689,0.0644,0.0887,0.0887,0.0887,0.0887,0,0.0663,0.0731,0.0797,0.0845,0.0981,0.101,0.1164,0.1223,0.1351,0.1501,0.1468,0.1582,0.1423,0.1377,0.1189,0.1012,0.1085,0.0801,0.075,0.0728,0.0715,0.058,0.0477,0.0885,0.0886,0.0886,0.0886,0,0.0717,0.075,0.0861,0.0964,0.101,0.1112,0.1286,0.1412,0.1502,0.1705,0.1755,0.1789,0.1719,0.1531,0.1357,0.1145,0.0876,0.0881,0.0842,0.0788,0.0467,0.037,0.0266,0.021,0.0686,0.0684,0.0683,0,0.0756,0.0813,0.0949,0.1038,0.1092,0.1239,0.1364,0.1485,0.1634,0.184,0.1965,0.1959,0.1977,0.1689,0.1329,0.1006,0.0841,0.0746,0.0651,0.0485,0.0339,0.0274,0.0231,0.0614,0.0612,0.061,0.0609,0,0.0843,0.088,0.0978,0.115,0.1286,0.1453,0.1634,0.177,0.194,0.2102,0.2286,0.2316,0.2036,0.1706,0.1248,0.1014,0.0639,0.0701,0.0569,0.033,0.0224,0.0133,0.0571,0.0596,0.0597,0.0598,0.0599,0.0599,0.0911,0.0996,0.1119,0.1288,0.145,0.165,0.1794,0.1986,0.2219,0.245,0.2479,0.2518,0.2041,0.1416,0.1105,0.0509,0.0509,0.0304,0.021,0.017,0.0099,0.0488,0.0429,0.0429,0.043,0.043,0.043,0,0.1001,0.11,0.1258,0.1456,0.1635,0.1703,0.1972,0.2112,0.2361,0.2535,0.2658,0.2416,0.1854,0.129,0.0476,0.0091,-0.0016,-0.0097,-0.0173,-0.0185,0.0201,0.0183,0.0023,0.0023,0.0023,0.0023,0.0024,0.0024,0.1056,0.1208,0.1284,0.1571,0.1714,0.1939,0.2084,0.2288,0.2441,0.2604,0.2594,0.2564,0.2114,0.0761,-0.009,-0.0274,-0.0484,-0.0583,-0.0652,-0.0389,-0.0357,-0.0327,-0.0363,-0.0635,-0.0636,-0.0974,-0.0978,-0.0981]}],[{"header":{"parameterUnit":"m.s-1","parameterCategory":2,"la1":30.2991,"la2":30.254,"lo1":-89.0895,"lo2":-89.0444,"dy":0.0017,"dx":0.0017,"nx":28,"ny":28,"refTime":"2025-07-22T09:00:00:Z","depth":"2","parameterNumber":2,"parameterNumberName":"U-component_of_CURRENTS"},"data":[0,0,0,0,0,0,0,0,0,0,0,0,0,0,0,0,0,0,0,0,0,0,0,0,0,0,0,0,0,0,0,0,0,0,0,0,0,0,0,0,0,0,0,0,0,0,0,0,0,0,0,0,0,0,0,0,0,0,0.3139,0.3139,0,0.3181,0.3181,0.3182,0.3231,0.3231,0.3232,0.3232,0.3266,0.3267,0.3267,0,0,0,0,0,0,0,0,0,0,0,0,0,0.3115,0.3115,0.3139,0.3139,0.3139,0.3181,0.3182,0.3182,0.3231,0.3231,0.3232,0.3232,0.3266,0.3267,0.3267,0,0,0,0,0,0,0,0,0,0,0,0,0,0.314,0.3115,0.3139,0.3167,0.3169,0.3181,0.3182,0.3183,0.323,0.3231,0.3232,0.3233,0.3266,0.3267,0.3267,0.3257,0,0,0.327,0.327,0,0,0,0,0,0,0,0,0.3139,0.3142,0.3162,0.3165,0.3168,0.3199,0.3186,0.3206,0.323,0.321,0.3232,0.3233,0.3241,0.3244,0.3254,0.3259,0.326,0.327,0.327,0.327,0.327,0,0,0,0,0,0,0,0.3137,0.314,0.3158,0.3162,0.3166,0.3182,0.3186,0.319,0.3223,0.3212,0.3215,0.3215,0.3243,0.3253,0.3255,0.3261,0.327,0.327,0.3271,0.3271,0.338,0.3382,0,0,0,0,0,0,0.3125,0.3138,0.3157,0.3159,0.3152,0.3181,0.3186,0.319,0.3223,0.3228,0.3214,0.3217,0.3252,0.3254,0.3256,0.3359,0.327,0.3271,0.3271,0.3378,0.3381,0.3383,0,0,0,0,0,0,0.3124,0.3126,0.3155,0.3147,0.3152,0.318,0.3185,0.3191,0.3223,0.3224,0.323,0.3242,0.3252,0.3255,0.3292,0.3356,0.3271,0.3272,0.3375,0.3379,0.3382,0.3492,0,0,0,0,0,0,0.3124,0.3126,0.3134,0.3147,0.3152,0.3185,0.3184,0.3191,0.3219,0.3224,0.3249,0.3252,0.3253,0.3291,0.3293,0.3356,0.3272,0.3371,0.3376,0.3381,0.3485,0.3499,0.351,0,0,0,0,0,0.3123,0.3133,0.3135,0.3137,0.3159,0.3186,0.3191,0.3215,0.322,0.3245,0.3265,0.3253,0.3323,0.3293,0.3294,0.3359,0.3369,0.3375,0.338,0.3479,0.3496,0.351,0,0,0,0,0,0,0.313,0.3139,0.3141,0.3155,0.3177,0.3194,0.3216,0.3225,0.326,0.3269,0.3271,0.3276,0.3344,0.3326,0.3293,0.3406,0.3349,0.3355,0.3424,0.344,0.3452,0.3459,0.3273,0,0,0,0,0,0.3131,0.3143,0.3155,0.3169,0.3181,0.32,0.3215,0.3232,0.3256,0.3273,0.3294,0.3321,0.3363,0.3379,0.3408,0.3448,0.345,0.3496,0.3508,0.3519,0.3527,0.3611,0.3633,0.3402,0.3402,0.3401,0,0,0.3137,0.3143,0.3151,0.3172,0.319,0.3222,0.3214,0.3247,0.3293,0.3269,0.3344,0.3367,0.3386,0.3455,0.3483,0.3449,0.3581,0.3526,0.3536,0.3538,0.3619,0.3642,0.3662,0.3405,0.3405,0.3404,0,0,0.3151,0.3163,0.3178,0.3205,0.3233,0.3248,0.3262,0.3296,0.3338,0.3398,0.3411,0.3469,0.3513,0.3555,0.3576,0.3669,0.3653,0.3681,0.3745,0.3827,0.3847,0.3864,0.3873,0.389,0.368,0.368,0.368,0,0.3158,0.3176,0.3189,0.3219,0.325,0.3264,0.3303,0.3347,0.3396,0.3445,0.3441,0.3552,0.3572,0.3663,0.3708,0.3703,0.3717,0.3685,0.3845,0.3863,0.3879,0.3883,0.3901,0.3686,0.3685,0.3685,0.3684,0,0.3186,0.321,0.3228,0.3269,0.331,0.3344,0.3401,0.3455,0.3501,0.3551,0.3662,0.369,0.3756,0.3783,0.3778,0.3903,0.3864,0.3859,0.3806,0.3909,0.3906,0.3923,0.3694,0.3692,0.369,0.3689,0,0,0.317,0.3231,0.3238,0.3274,0.3342,0.3377,0.3469,0.3557,0.3633,0.3701,0.3808,0.3892,0.391,0.3935,0.3938,0.4005,0.4131,0.3985,0.3986,0.3991,0.4271,0.4091,0.409,0.4163,0.4167,0.4171,0.4214,0,0.3186,0.3243,0.3277,0.3353,0.3395,0.3458,0.3543,0.3637,0.3726,0.3837,0.3902,0.4006,0.3967,0.4015,0.4078,0.4132,0.4185,0.4117,0.4171,0.4171,0.4,0.4108,0.3794,0.3794,0.4229,0.4232,0.4234,0,0.3196,0.324,0.3314,0.3407,0.3434,0.349,0.3636,0.3716,0.3874,0.3951,0.4052,0.411,0.4219,0.4181,0.4295,0.4255,0.4276,0.4297,0.4299,0.4106,0.4024,0.3767,0.3807,0.4261,0.4259,0.4257,0.4255,0,0.3178,0.326,0.3322,0.3359,0.3473,0.3537,0.3605,0.3759,0.3845,0.4038,0.4116,0.4241,0.4311,0.4378,0.4403,0.4383,0.4511,0.4486,0.4327,0.4312,0.4039,0.3992,0.4583,0.4583,0.4583,0.4583,0.4583,0,0.3182,0.3224,0.3322,0.3361,0.3453,0.3546,0.366,0.3763,0.3915,0.4013,0.4164,0.4238,0.4377,0.4449,0.4461,0.4423,0.4554,0.4354,0.4332,0.4061,0.4018,0.4418,0.4399,0.4584,0.4584,0.4584,0.4583,0,0.3155,0.321,0.3277,0.3399,0.3444,0.3518,0.3653,0.3734,0.389,0.4022,0.409,0.4277,0.4362,0.4434,0.4547,0.4468,0.448,0.4432,0.4063,0.3996,0.4206,0.4192,0.4272,0.4266,0.4262,0.4258,0.4255,0,0.3138,0.3173,0.329,0.333,0.3386,0.3494,0.3563,0.3715,0.3801,0.4003,0.4061,0.4212,0.4247,0.4313,0.4271,0.4245,0.4369,0.3915,0.3822,0.4214,0.4186,0.4179,0.4171,0.3497,0.3488,0.3481,0.3474,0,0.3105,0.3145,0.3207,0.3285,0.3355,0.3413,0.3524,0.3567,0.3736,0.3814,0.3901,0.3948,0.4035,0.3869,0.3854,0.38,0.3895,0.3755,0.4317,0.361,0.3483,0.3455,0.3474,0.3407,0.3414,0.3419,0.3423,0.3425,0.3063,0.3088,0.3153,0.3206,0.3277,0.3282,0.3257,0.3358,0.339,0.345,0.3624,0.3574,0.3626,0.3426,0.3306,0.3225,0.3486,0.3332,0.3357,0.3389,0.3278,0.3148,0.2985,0.2989,0.2993,0.2996,0.2998,0,0.2995,0.3019,0.306,0.3066,0.3055,0.316,0.3187,0.3106,0.304,0.316,0.3181,0.2912,0.2792,0.2846,0.2609,0.2577,0.2577,0.2473,0.2459,0.2527,0.2588,0.2437,0.192,0.1917,0.1914,0.1911,0,0,0.2957,0.2951,0.2943,0.283,0.2852,0.275,0.2725,0.2637,0.265,0.2545,0.2511,0.2723,0.2782,0.2339,0.2262,0.205,0.2281,0.197,0.2841,0.2897,0.2953,0.3091,0.2935,0,0,0,0,0]},{"header":{"parameterUnit":"m.s-1","parameterCategory":2,"la1":30.2991,"la2":30.254,"lo1":-89.0895,"lo2":-89.0444,"dy":0.0017,"dx":0.0017,"nx":28,"ny":28,"refTime":"2025-07-22T09:00:00:Z","depth":"2","parameterNumber":3,"parameterNumberName":"V-component_of_CURRENTS"},"data":[0,0,0,0,0,0,0,0,0,0,0,0,0,0,0,0,0,0,0,0,0,0,0,0,0,0,0,0,0,0,0,0,0,0,0,0,0,0,0,0,0,0,0,0,0,0,0,0,0,0,0,0,0,0,0,0,0,0,0.0183,0.0183,0,0.0154,0.0153,0.0153,0.0121,0.0121,0.012,0.012,0.0077,0.0076,0.0075,0,0,0,0,0,0,0,0,0,0,0,0,0,0.0177,0.0177,0.0183,0.0183,0.0182,0.0154,0.0153,0.0153,0.0121,0.0121,0.012,0.012,0.0077,0.0076,0.0075,0,0,0,0,0,0,0,0,0,0,0,0,0,0.0166,0.0177,0.0183,0.0164,0.0162,0.0154,0.0153,0.0153,0.0121,0.0121,0.012,0.012,0.0078,0.0076,0.0075,0.008,0,0,0.0072,0.0071,0,0,0,0,0,0,0,0,0.0167,0.0166,0.0167,0.0165,0.0163,0.0141,0.0135,0.0128,0.0121,0.0136,0.012,0.0119,0.0098,0.0095,0.009,0.0078,0.0076,0.0072,0.0071,0.007,0.007,0,0,0,0,0,0,0,0.0168,0.0167,0.0171,0.0167,0.0164,0.0144,0.0142,0.0133,0.012,0.0135,0.0132,0.013,0.0097,0.0091,0.0089,0.0076,0.0072,0.0071,0.007,0.0069,0.0077,0.0077,0,0,0,0,0,0,0.0175,0.0168,0.0172,0.017,0.0164,0.0145,0.0143,0.0148,0.012,0.0116,0.0131,0.0129,0.0094,0.009,0.0087,0.0115,0.007,0.0069,0.0069,0.0076,0.0077,0.0078,0,0,0,0,0,0,0.0175,0.0176,0.0173,0.0168,0.0167,0.0146,0.0152,0.0148,0.0144,0.0118,0.0113,0.0131,0.0093,0.0089,0.0088,0.0112,0.0069,0.0068,0.0075,0.0076,0.0077,0.0155,0,0,0,0,0,0,0.0175,0.0176,0.0183,0.0169,0.0167,0.0178,0.0152,0.0148,0.0144,0.0141,0.0117,0.0112,0.0092,0.009,0.0087,0.0109,0.0067,0.0074,0.0075,0.0077,0.0151,0.0158,0.0165,0,0,0,0,0,0.0175,0.0192,0.0184,0.0184,0.0177,0.0179,0.0176,0.0159,0.0144,0.0151,0.0134,0.0113,0.0098,0.009,0.0086,0.0109,0.0073,0.0075,0.0077,0.0148,0.0157,0.0165,0,0,0,0,0,0,0.0191,0.019,0.018,0.0195,0.019,0.0174,0.0178,0.0164,0.0156,0.0153,0.0124,0.0119,0.0126,0.0107,0.0098,0.0115,0.0082,0.0083,0.0137,0.0146,0.0153,0.0176,0.0066,0,0,0,0,0,0.0199,0.0211,0.0202,0.0213,0.0214,0.0196,0.0194,0.0183,0.0173,0.0168,0.0151,0.0136,0.0132,0.013,0.0118,0.013,0.0105,0.0141,0.0148,0.0154,0.0171,0.0159,0.0167,0.0084,0.0084,0.0084,0,0,0.0205,0.0207,0.0212,0.0217,0.0211,0.023,0.0194,0.0198,0.0215,0.0166,0.0182,0.0158,0.0139,0.0151,0.0153,0.0139,0.016,0.0157,0.0162,0.0176,0.0162,0.017,0.0177,0.0086,0.0085,0.0085,0,0,0.0235,0.023,0.0254,0.0258,0.0258,0.0252,0.0257,0.0247,0.0243,0.0252,0.0224,0.022,0.0206,0.0205,0.0201,0.024,0.0195,0.023,0.0289,0.0278,0.0285,0.029,0.0252,0.0254,0.0236,0.0237,0.0237,0,0.0243,0.0276,0.0259,0.0286,0.0302,0.0269,0.0305,0.0299,0.0288,0.0302,0.0267,0.0265,0.0238,0.0271,0.0278,0.0259,0.0231,0.026,0.0288,0.0293,0.0298,0.0257,0.0258,0.0241,0.024,0.024,0.0239,0,0.0295,0.0321,0.0337,0.0366,0.0377,0.0401,0.0397,0.0406,0.0392,0.0388,0.0405,0.0366,0.0369,0.0354,0.0325,0.0354,0.0315,0.0295,0.0269,0.0311,0.0264,0.0264,0.0246,0.0245,0.0244,0.0243,0,0,0.032,0.0367,0.0373,0.0413,0.0426,0.0451,0.0479,0.0511,0.0551,0.0516,0.0564,0.0532,0.0503,0.0497,0.0457,0.044,0.0431,0.0383,0.0381,0.035,0.0383,0.0327,0.0321,0.0413,0.0413,0.0414,0.0331,0,0.037,0.0448,0.0454,0.0533,0.058,0.0573,0.0614,0.0634,0.0634,0.0667,0.0624,0.0649,0.056,0.0569,0.0534,0.0466,0.0436,0.0454,0.0344,0.0341,0.029,0.0322,0.0342,0.0268,0.0331,0.033,0.033,0,0.0425,0.0478,0.0564,0.0649,0.0669,0.0707,0.0783,0.0819,0.0843,0.0845,0.084,0.0801,0.0777,0.0696,0.0587,0.0599,0.05,0.043,0.0425,0.0351,0.0286,0.0239,0.0265,0.0329,0.0329,0.0329,0.0329,0,0.0474,0.0559,0.0639,0.0665,0.0744,0.0789,0.0836,0.0877,0.0942,0.0968,0.1005,0.0947,0.0941,0.0812,0.0639,0.0621,0.0506,0.0466,0.032,0.0313,0.03,0.0291,0.0397,0.0397,0.0397,0.0397,0.0398,0,0.0539,0.0604,0.0673,0.0721,0.0842,0.0865,0.0986,0.102,0.1089,0.1184,0.1106,0.1146,0.0971,0.0873,0.0693,0.0499,0.0542,0.0339,0.0299,0.0324,0.0319,0.0351,0.0347,0.0394,0.0395,0.0395,0.0396,0,0.0588,0.0623,0.0731,0.0828,0.087,0.0961,0.11,0.1192,0.1229,0.1347,0.1367,0.1315,0.1178,0.0969,0.0768,0.0589,0.0402,0.0321,0.0344,0.0308,0.0199,0.02,0.0161,0.0159,0.0156,0.0155,0.0153,0,0.0623,0.0678,0.0813,0.0896,0.0947,0.1079,0.1182,0.1264,0.1371,0.1447,0.1519,0.1427,0.1361,0.1019,0.0716,0.0403,0.0369,0.0212,0.0185,0.0216,0.0181,0.0185,0.0188,0.0187,0.0186,0.0185,0.0184,0,0.07,0.0738,0.0833,0.0997,0.1118,0.1265,0.1413,0.1509,0.161,0.1673,0.1727,0.1672,0.1372,0.1059,0.0639,0.0427,0.026,0.0183,0.0235,0.0241,0.0233,0.0201,0.0205,0.0177,0.0177,0.0178,0.0178,0.0179,0.0759,0.0839,0.0957,0.1115,0.1259,0.1423,0.1535,0.1672,0.1806,0.1899,0.1862,0.1772,0.1455,0.0903,0.0549,0.0188,0.0209,0.0072,0.0078,0.0085,0.01,0.0089,0.0007,0.0007,0.0007,0.0007,0.0006,0,0.0842,0.0929,0.1074,0.1249,0.14,0.1473,0.1676,0.1762,0.1885,0.1968,0.1978,0.1641,0.1296,0.0924,0.039,0.0067,0.0061,-0.0045,0.0026,0.0035,0.0043,0.0059,-0.0047,-0.0048,-0.0049,-0.005,0,0,0.0888,0.103,0.1097,0.1331,0.1458,0.164,0.1746,0.1852,0.1936,0.1964,0.1924,0.186,0.1405,0.1007,0.0573,0.0264,0.0224,0.0199,0.0275,0.0419,0.0431,0.0141,0.018,0,0,0,0,0]}],[{"header":{"parameterUnit":"m.s-1","parameterCategory":2,"la1":30.2991,"la2":30.254,"lo1":-89.0895,"lo2":-89.0444,"dy":0.0017,"dx":0.0017,"nx":28,"ny":28,"refTime":"2025-07-22T09:00:00:Z","depth":"4","parameterNumber":2,"parameterNumberName":"U-component_of_CURRENTS"},"data":[0,0,0,0,0,0,0,0,0,0,0,0,0,0,0,0,0,0,0,0,0,0,0,0,0,0,0,0,0,0,0,0,0,0,0,0,0,0,0,0,0,0,0,0,0,0,0,0,0,0,0,0,0,0,0,0,0,0,0.1863,0.1863,0,0.1892,0.1893,0.1893,0.1925,0.1926,0.1927,0.1928,0.1979,0.1979,0.198,0,0,0,0,0,0,0,0,0,0,0,0,0,0.1831,0.1831,0.1863,0.1863,0.1864,0.1892,0.1893,0.1893,0.1925,0.1926,0.1927,0.1928,0.1978,0.1979,0.198,0,0,0,0,0,0,0,0,0,0,0,0,0,0.1847,0.1831,0.1863,0.1886,0.1889,0.1892,0.1893,0.1893,0.1925,0.1926,0.1927,0.1928,0.1978,0.1979,0.198,0.1961,0,0,0.1983,0.1983,0,0,0,0,0,0,0,0,0.1846,0.1848,0.1882,0.1885,0.1888,0.191,0.19,0.1918,0.1925,0.1907,0.1928,0.1929,0.1959,0.1962,0.1959,0.1964,0.1966,0.1983,0.1983,0.1984,0.1984,0,0,0,0,0,0,0,0.1845,0.1847,0.1871,0.1883,0.1886,0.1895,0.1898,0.1903,0.1924,0.1909,0.1912,0.1921,0.196,0.1958,0.1961,0.1967,0.1983,0.1984,0.1984,0.1985,0.2082,0.2084,0,0,0,0,0,0,0.1848,0.1846,0.187,0.1872,0.1874,0.1895,0.1898,0.1898,0.1923,0.1929,0.192,0.1923,0.1956,0.1959,0.1963,0.2055,0.1984,0.1985,0.1985,0.208,0.2083,0.2085,0,0,0,0,0,0,0.1846,0.1849,0.1869,0.1863,0.1867,0.1894,0.1894,0.1898,0.1936,0.1932,0.1938,0.1958,0.1957,0.1961,0.2004,0.2053,0.1985,0.1986,0.2078,0.2081,0.2084,0.2168,0,0,0,0,0,0,0.1845,0.1848,0.187,0.1863,0.1867,0.1896,0.1893,0.1898,0.1938,0.1943,0.1966,0.1969,0.1958,0.2003,0.2005,0.2053,0.1987,0.2075,0.2079,0.2083,0.2162,0.2173,0.2183,0,0,0,0,0,0.1844,0.1856,0.187,0.1875,0.1889,0.1898,0.1901,0.1922,0.194,0.1959,0.1981,0.1971,0.2029,0.2005,0.2007,0.2057,0.2073,0.2078,0.2083,0.2158,0.2171,0.2182,0,0,0,0,0,0,0.1853,0.186,0.1876,0.1892,0.1911,0.1905,0.1932,0.1944,0.1975,0.1995,0.1989,0.1994,0.2053,0.2041,0.2015,0.2097,0.2053,0.2058,0.211,0.2122,0.2132,0.2141,0.1987,0,0,0,0,0,0.1866,0.1881,0.1889,0.1909,0.1922,0.1937,0.1953,0.1968,0.1984,0.2001,0.2015,0.2038,0.2065,0.2084,0.2099,0.2137,0.2142,0.2174,0.2184,0.2192,0.2203,0.2258,0.2274,0.21,0.21,0.21,0,0,0.1876,0.1885,0.1895,0.1915,0.1932,0.1947,0.1949,0.1985,0.2006,0.2001,0.2049,0.2075,0.2084,0.2133,0.2158,0.2135,0.2244,0.2198,0.2205,0.2211,0.2264,0.2281,0.2296,0.2103,0.2103,0.2102,0,0,0.1888,0.1914,0.1928,0.1942,0.1978,0.1987,0.2008,0.2028,0.2053,0.2096,0.2108,0.2167,0.2191,0.2216,0.2229,0.2303,0.2297,0.2316,0.2375,0.2429,0.2444,0.2457,0.2483,0.2497,0.232,0.232,0.232,0,0.1909,0.1915,0.1937,0.195,0.1967,0.2009,0.2025,0.2051,0.2087,0.2122,0.2126,0.222,0.223,0.2303,0.2334,0.2328,0.2349,0.2327,0.2443,0.2456,0.2468,0.2491,0.2506,0.2325,0.2324,0.2324,0.2323,0,0.191,0.1934,0.1945,0.1975,0.1999,0.2024,0.2057,0.2107,0.2153,0.2183,0.2279,0.2309,0.237,0.2389,0.2384,0.2485,0.2469,0.245,0.2411,0.249,0.2509,0.2524,0.2331,0.233,0.2328,0.2327,0,0,0.1904,0.194,0.1949,0.1964,0.2014,0.2028,0.2091,0.2152,0.2215,0.2277,0.2358,0.2427,0.2478,0.2496,0.2519,0.2569,0.2671,0.2556,0.2557,0.258,0.2785,0.2591,0.2587,0.2681,0.2684,0.2687,0.2764,0,0.1906,0.1918,0.1948,0.1984,0.1988,0.2055,0.2109,0.218,0.2254,0.2345,0.2422,0.2509,0.2507,0.2568,0.2621,0.2669,0.2714,0.2651,0.2706,0.2707,0.2524,0.2599,0.2696,0.2774,0.2777,0.2779,0.2781,0,0.1886,0.1897,0.192,0.1979,0.1996,0.2049,0.2159,0.2215,0.2354,0.2418,0.2533,0.2593,0.271,0.2686,0.2809,0.2776,0.2792,0.281,0.2813,0.2611,0.2539,0.2679,0.2806,0.2804,0.2803,0.2801,0.2799,0,0.1826,0.1878,0.1899,0.1912,0.199,0.2056,0.2131,0.2258,0.2326,0.2494,0.2573,0.2701,0.2796,0.2849,0.2897,0.2874,0.3006,0.2967,0.2801,0.2787,0.2902,0.2887,0.304,0.304,0.304,0.3039,0.3039,0,0.1775,0.1797,0.1891,0.1891,0.1961,0.2043,0.2159,0.2248,0.2405,0.2493,0.2627,0.271,0.2849,0.293,0.2941,0.2915,0.3044,0.2823,0.28,0.2933,0.2922,0.2911,0.2895,0.3042,0.3042,0.3041,0.3041,0,0.1693,0.1744,0.177,0.1875,0.1927,0.1984,0.2162,0.2244,0.2405,0.2529,0.2591,0.2765,0.2867,0.2953,0.3051,0.2958,0.2956,0.2908,0.3052,0.3034,0.2689,0.2677,0.2727,0.2721,0.2716,0.2711,0.2708,0,0.1641,0.1649,0.1749,0.1783,0.1849,0.1966,0.2053,0.2226,0.2308,0.2528,0.2568,0.274,0.2827,0.2817,0.2913,0.2917,0.2874,0.2844,0.2754,0.2688,0.2662,0.2657,0.2652,0.27,0.2698,0.2697,0.2696,0,0.1547,0.1607,0.1626,0.1704,0.1795,0.1869,0.201,0.2055,0.225,0.2413,0.249,0.254,0.2646,0.2706,0.2735,0.2726,0.2848,0.2789,0.2799,0.2714,0.2655,0.2633,0.2634,0.2678,0.268,0.2682,0.2683,0,0.1496,0.1485,0.1541,0.1601,0.1703,0.175,0.1832,0.1938,0.2033,0.2272,0.2294,0.2464,0.263,0.2608,0.263,0.2613,0.256,0.2453,0.2479,0.2499,0.2384,0.2273,0.217,0,0,0,0,0,0.1432,0.1407,0.1444,0.148,0.1589,0.165,0.1794,0.1884,0.2075,0.2071,0.2175,0.2255,0.2303,0.2393,0.2328,0.2511,0.2562,0.242,0.245,0.2579,0.2599,0.2482,0,0,0,0,0,0,0.1376,0.1394,0.1386,0.1392,0.142,0.1512,0.1596,0.1716,0.1725,0.1926,0.1974,0.2108,0.2201,0.2326,0.2287,0.2308,0.2273,0.2524,0.2517,0.2567,0.2586,0.2602,0.2489,0,0,0,0,0]},{"header":{"parameterUnit":"m.s-1","parameterCategory":2,"la1":30.2991,"la2":30.254,"lo1":-89.0895,"lo2":-89.0444,"dy":0.0017,"dx":0.0017,"nx":28,"ny":28,"refTime":"2025-07-22T09:00:00:Z","depth":"4","parameterNumber":3,"parameterNumberName":"V-component_of_CURRENTS"},"data":[0,0,0,0,0,0,0,0,0,0,0,0,0,0,0,0,0,0,0,0,0,0,0,0,0,0,0,0,0,0,0,0,0,0,0,0,0,0,0,0,0,0,0,0,0,0,0,0,0,0,0,0,0,0,0,0,0,0,0.0153,0.0153,0,0.0142,0.0142,0.0141,0.0129,0.0129,0.0129,0.0129,0.0114,0.0114,0.0114,0,0,0,0,0,0,0,0,0,0,0,0,0,0.0138,0.0139,0.0153,0.0153,0.0153,0.0142,0.0142,0.0141,0.0129,0.0129,0.0129,0.0129,0.0114,0.0114,0.0114,0,0,0,0,0,0,0,0,0,0,0,0,0,0.0137,0.0139,0.0153,0.0146,0.0145,0.0142,0.0142,0.0141,0.0129,0.0129,0.0129,0.0129,0.0114,0.0114,0.0114,0.0115,0,0,0.0112,0.0112,0,0,0,0,0,0,0,0,0.0137,0.0138,0.0147,0.0147,0.0146,0.0137,0.0131,0.0133,0.0129,0.0135,0.0129,0.0129,0.0122,0.0121,0.0119,0.0114,0.0114,0.0112,0.0112,0.0112,0.0112,0,0,0,0,0,0,0,0.0138,0.0138,0.0148,0.0147,0.0146,0.0134,0.0134,0.0131,0.0129,0.0134,0.0134,0.0133,0.0121,0.0119,0.0118,0.0114,0.0112,0.0112,0.0112,0.0112,0.0115,0.0115,0,0,0,0,0,0,0.0142,0.0138,0.0149,0.0148,0.0141,0.0135,0.0135,0.014,0.0129,0.0128,0.0133,0.0133,0.012,0.0119,0.0118,0.0139,0.0112,0.0112,0.0111,0.0114,0.0115,0.0115,0,0,0,0,0,0,0.0141,0.0143,0.0149,0.0143,0.0143,0.0136,0.0141,0.014,0.0142,0.0129,0.0127,0.0138,0.012,0.0118,0.0123,0.0137,0.0111,0.0111,0.0114,0.0114,0.0115,0.0168,0,0,0,0,0,0,0.0141,0.0143,0.015,0.0143,0.0143,0.0155,0.0141,0.014,0.0142,0.0141,0.0132,0.013,0.0119,0.0124,0.0123,0.0136,0.0111,0.0114,0.0114,0.0115,0.0166,0.017,0.0174,0,0,0,0,0,0.0141,0.0154,0.015,0.0152,0.0153,0.0156,0.0155,0.0148,0.0143,0.0149,0.0143,0.0131,0.0126,0.0124,0.0122,0.0136,0.0113,0.0114,0.0115,0.0164,0.017,0.0174,0,0,0,0,0,0,0.015,0.0154,0.015,0.0163,0.0162,0.0154,0.016,0.0154,0.0153,0.0154,0.0139,0.0137,0.0146,0.0132,0.0129,0.0137,0.0116,0.0117,0.0154,0.0159,0.0163,0.0169,0.011,0,0,0,0,0,0.0156,0.0167,0.0164,0.0174,0.0177,0.0169,0.017,0.0166,0.0163,0.0163,0.0157,0.0149,0.0146,0.0146,0.0141,0.0148,0.0114,0.0153,0.0158,0.0161,0.0164,0.0119,0.0119,0.0117,0.0117,0.0117,0,0,0.0161,0.0164,0.017,0.0177,0.0176,0.0193,0.017,0.0176,0.0191,0.0161,0.0181,0.0166,0.0151,0.016,0.0162,0.0151,0.0144,0.0162,0.0166,0.0166,0.012,0.012,0.012,0.0118,0.0118,0.0118,0,0,0.0182,0.0182,0.0201,0.0208,0.0212,0.021,0.0215,0.0214,0.0214,0.0226,0.0208,0.02,0.0201,0.0189,0.0184,0.0206,0.0167,0.0206,0.0233,0.019,0.019,0.0189,0.0146,0.0141,0.0207,0.0208,0.0208,0,0.0188,0.0216,0.0206,0.0229,0.0244,0.0223,0.0252,0.0249,0.0249,0.0251,0.024,0.0228,0.0214,0.0218,0.0225,0.0216,0.0184,0.0219,0.0195,0.0194,0.0192,0.0148,0.0142,0.021,0.021,0.021,0.0209,0,0.0226,0.0252,0.0265,0.0291,0.0301,0.0322,0.0321,0.0327,0.0322,0.0313,0.0313,0.0286,0.0277,0.027,0.0257,0.0244,0.0223,0.0206,0.0184,0.0196,0.0148,0.0141,0.0214,0.0213,0.0212,0.0212,0,0,0.0238,0.0284,0.0291,0.0324,0.0341,0.0358,0.0377,0.0391,0.0405,0.0385,0.0395,0.0375,0.0346,0.0337,0.031,0.0273,0.0232,0.024,0.0236,0.02,0.0134,0.0131,0.0123,0.021,0.0209,0.0209,0.0106,0,0.0276,0.034,0.0349,0.0414,0.0451,0.0446,0.047,0.0473,0.0463,0.0463,0.0416,0.0416,0.0376,0.0373,0.0327,0.026,0.0215,0.0261,0.0126,0.0122,0.012,0.0115,0.0206,0.01,0.0098,0.0097,0.0096,0,0.0314,0.0358,0.043,0.0493,0.0507,0.0539,0.0573,0.0593,0.0573,0.0562,0.0532,0.049,0.0442,0.0402,0.0279,0.0311,0.0228,0.0165,0.016,0.0134,0.0106,0.0084,0.0082,0.0083,0.0084,0.0085,0.0086,0,0.0341,0.0415,0.0481,0.0503,0.0563,0.0594,0.0623,0.0624,0.065,0.0625,0.0624,0.0549,0.0521,0.0405,0.0273,0.0275,0.0125,0.0109,0.0024,0.0023,0.0032,0.0034,0.0012,0.0012,0.0013,0.0013,0.0013,0,0.0383,0.0437,0.0504,0.0544,0.0624,0.0646,0.0715,0.072,0.0732,0.076,0.0683,0.0671,0.052,0.0414,0.0285,0.0133,0.0128,0.0026,-0.0004,0.0057,0.0063,0.0026,0.0029,0.0009,0.001,0.0011,0.0011,0,0.0406,0.0446,0.053,0.061,0.0643,0.0703,0.0791,0.0833,0.083,0.086,0.0857,0.0763,0.0631,0.0463,0.0274,0.0162,0.0009,-0.0047,0.003,0.0006,-0.0069,-0.0062,-0.0149,-0.015,-0.015,-0.0151,-0.0152,0,0.0425,0.0471,0.0582,0.064,0.0685,0.0779,0.0843,0.0882,0.0923,0.0914,0.0924,0.0814,0.0729,0.046,0.0278,0.0024,-0.0012,-0.0102,-0.0087,-0.0065,-0.0086,-0.0078,-0.007,-0.0153,-0.0153,-0.0153,-0.0153,0,0.0465,0.0501,0.057,0.069,0.0777,0.0874,0.0962,0.0996,0.1032,0.1031,0.0981,0.084,0.0688,0.0474,0.0275,0.0092,-0.0049,-0.0111,-0.011,-0.0097,-0.0071,-0.0089,-0.0081,-0.0156,-0.0156,-0.0156,-0.0155,0,0.0492,0.0539,0.0628,0.0736,0.0841,0.0931,0.0982,0.1032,0.107,0.1052,0.1036,0.0868,0.0777,0.0508,0.0323,0.0144,0.0099,0.0032,0.0024,0.0025,0.0105,0.0165,0.0125,0,0,0,0,0,0.052,0.0573,0.067,0.0779,0.0883,0.0949,0.1043,0.108,0.1109,0.1088,0.1065,0.0924,0.0658,0.0541,0.0364,0.0295,0.0057,0.0079,-0.0027,-0.0172,-0.0168,-0.0105,0,0,0,0,0,0,0.0534,0.062,0.0666,0.0795,0.0876,0.099,0.1053,0.1079,0.1064,0.1065,0.0932,0.087,0.0616,0.0764,0.0359,0.0304,0.0209,-0.004,-0.0045,-0.0174,-0.0171,-0.0168,-0.0101,0,0,0,0,0]}]]